AEE763 DNPO-DNMM

Flight info

Callsign AEE763
Flight time 1h 27m
Altitude 6500
Route PORTHARCOURT OFONI BOMADI OBORO GBAROGOLO NIKOROGHA AGGI GULANI UBACKE AWOYE ISEKUN EPE MOWE ILATE MURTALAMUHAMMED
Aircraft C310/L-SDFGR/S

Departure

Time 2026-04-25 07:44
Airport Port Harcourt International Airport (DNPO)

Arrival

Time 2026-04-25 09:12
Airport Murtala Muhammed International Airport (DNMM)
Time Latitude Longitude Altitude Speed Heading
2026-04-25 07:35 5.01749 6.95549 69 ft 0 kts 109°
2026-04-25 07:41 5.01748 6.95551 68 ft 1 kts 124°
2026-04-25 07:41 5.01737 6.95553 70 ft 2 kts 207°
2026-04-25 07:41 5.01752 6.95520 71 ft 11 kts 308°
2026-04-25 07:41 5.01794 6.95445 71 ft 12 kts 298°
2026-04-25 07:42 5.01838 6.95374 68 ft 12 kts 321°
2026-04-25 07:42 5.01916 6.95386 69 ft 12 kts 25°
2026-04-25 07:42 5.01984 6.95412 68 ft 9 kts 37°
2026-04-25 07:42 5.02041 6.95446 69 ft 11 kts 28°
2026-04-25 07:43 5.02112 6.95442 67 ft 10 kts 317°
2026-04-25 07:43 5.02125 6.95417 67 ft 0 kts 275°
2026-04-25 07:43 5.02117 6.95375 71 ft 13 kts 248°
2026-04-25 07:43 5.02042 6.95263 72 ft 24 kts 230°
2026-04-25 07:44 5.01763 6.95074 73 ft 80 kts 208°
2026-04-25 07:44 5.01146 6.94739 191 ft 111 kts 206°
2026-04-25 07:44 5.00486 6.94320 635 ft 115 kts 216°
2026-04-25 07:44 5.00059 6.93640 1099 ft 118 kts 259°
2026-04-25 07:45 5.00011 6.92828 1482 ft 120 kts 262°
2026-04-25 07:45 4.99899 6.91982 1810 ft 125 kts 259°
2026-04-25 07:45 4.99829 6.91092 2141 ft 131 kts 263°
2026-04-25 07:45 4.99781 6.90150 2478 ft 140 kts 264°
2026-04-25 07:46 4.99730 6.89155 2770 ft 145 kts 264°
2026-04-25 07:46 4.99676 6.88128 3086 ft 149 kts 264°
2026-04-25 07:46 4.99616 6.87076 3407 ft 152 kts 264°
2026-04-25 07:46 4.99547 6.86021 3704 ft 154 kts 264°
2026-04-25 07:47 4.99476 6.84951 4005 ft 153 kts 264°
2026-04-25 07:47 4.99405 6.83882 4258 ft 156 kts 264°
2026-04-25 07:47 4.99328 6.82764 4391 ft 166 kts 264°
2026-04-25 07:47 4.99244 6.81571 4449 ft 177 kts 264°
2026-04-25 07:48 4.99152 6.80312 4471 ft 185 kts 264°
2026-04-25 07:48 4.99054 6.79006 4490 ft 191 kts 264°
2026-04-25 07:48 4.98950 6.77660 4485 ft 196 kts 264°
2026-04-25 07:48 4.98844 6.76288 4491 ft 199 kts 264°
2026-04-25 07:49 4.98737 6.74897 4497 ft 201 kts 264°
2026-04-25 07:49 4.98630 6.73498 4495 ft 202 kts 264°
2026-04-25 07:49 4.98521 6.72090 4495 ft 203 kts 264°
2026-04-25 07:49 4.98411 6.70681 4495 ft 203 kts 264°
2026-04-25 07:50 4.98300 6.69273 4495 ft 203 kts 264°
2026-04-25 07:50 4.98189 6.67862 4492 ft 203 kts 264°
2026-04-25 07:50 4.98078 6.66453 4500 ft 203 kts 264°
2026-04-25 07:50 4.97967 6.65037 4496 ft 204 kts 264°
2026-04-25 07:51 4.97856 6.63624 4490 ft 203 kts 264°
2026-04-25 07:51 4.97746 6.62218 4505 ft 203 kts 264°
2026-04-25 07:51 4.97635 6.60809 4499 ft 203 kts 264°
2026-04-25 07:51 4.97523 6.59402 4504 ft 202 kts 264°
2026-04-25 07:52 4.97418 6.58015 4507 ft 202 kts 264°
2026-04-25 07:52 4.97322 6.56616 4494 ft 201 kts 264°
2026-04-25 07:52 4.97233 6.55220 4500 ft 200 kts 265°
2026-04-25 07:52 4.97147 6.53831 4504 ft 200 kts 265°
2026-04-25 07:53 4.97061 6.52438 4501 ft 200 kts 265°
2026-04-25 07:53 4.96976 6.51050 4501 ft 199 kts 265°
2026-04-25 07:53 4.96889 6.49662 4502 ft 200 kts 265°
2026-04-25 07:53 4.96829 6.48270 4496 ft 200 kts 267°
2026-04-25 07:54 4.96808 6.46879 4494 ft 199 kts 268°
2026-04-25 07:54 4.96796 6.45490 4500 ft 199 kts 268°
2026-04-25 07:54 4.96692 6.44109 4497 ft 199 kts 262°
2026-04-25 07:54 4.96546 6.42730 4491 ft 199 kts 263°
2026-04-25 07:55 4.96416 6.41350 4496 ft 199 kts 263°
2026-04-25 07:55 4.96284 6.39973 4498 ft 198 kts 263°
2026-04-25 07:55 4.96150 6.38594 4506 ft 199 kts 263°
2026-04-25 07:55 4.96018 6.37209 4526 ft 201 kts 263°
2026-04-25 07:56 4.95881 6.35801 4514 ft 203 kts 263°
2026-04-25 07:56 4.95744 6.34387 4503 ft 204 kts 263°
2026-04-25 07:56 4.95610 6.32990 4479 ft 203 kts 263°
2026-04-25 07:56 4.95472 6.31565 4499 ft 203 kts 263°
2026-04-25 07:57 4.95338 6.30169 4505 ft 204 kts 263°
2026-04-25 07:57 4.95202 6.28753 4484 ft 204 kts 263°
2026-04-25 07:57 4.95314 6.27349 4483 ft 204 kts 284°
2026-04-25 07:57 4.95791 6.26008 4492 ft 205 kts 291°
2026-04-25 07:58 4.96362 6.24703 4484 ft 204 kts 294°
2026-04-25 07:58 4.96978 6.23421 4490 ft 203 kts 297°
2026-04-25 07:58 4.97718 6.22211 4487 ft 203 kts 301°
2026-04-25 07:58 4.98458 6.21017 4493 ft 202 kts 300°
2026-04-25 07:59 4.99188 6.19813 4491 ft 202 kts 300°
2026-04-25 07:59 4.99920 6.18617 4493 ft 201 kts 300°
2026-04-25 07:59 5.00652 6.17421 4493 ft 201 kts 300°
2026-04-25 07:59 5.01383 6.16226 4509 ft 201 kts 300°
2026-04-25 08:00 5.02115 6.15027 4512 ft 202 kts 300°
2026-04-25 08:00 5.02853 6.13822 4498 ft 203 kts 300°
2026-04-25 08:00 5.03587 6.12618 4500 ft 202 kts 300°
2026-04-25 08:00 5.04324 6.11414 4500 ft 203 kts 300°
2026-04-25 08:01 5.05062 6.10207 4500 ft 203 kts 300°
2026-04-25 08:01 5.05799 6.09000 4513 ft 204 kts 300°
2026-04-25 08:01 5.06543 6.07783 4499 ft 204 kts 300°
2026-04-25 08:01 5.07284 6.06567 4501 ft 205 kts 300°
2026-04-25 08:02 5.08029 6.05352 4496 ft 204 kts 300°
2026-04-25 08:02 5.08760 6.04153 4504 ft 205 kts 300°
2026-04-25 08:02 5.09507 6.02932 4501 ft 205 kts 300°
2026-04-25 08:02 5.10250 6.01713 4495 ft 205 kts 300°
2026-04-25 08:03 5.10994 6.00499 4484 ft 204 kts 300°
2026-04-25 08:03 5.11733 5.99288 4490 ft 203 kts 300°
2026-04-25 08:03 5.12466 5.98083 4490 ft 202 kts 300°
2026-04-25 08:03 5.13181 5.96875 4498 ft 202 kts 301°
2026-04-25 08:04 5.13968 5.95708 4501 ft 202 kts 303°
2026-04-25 08:04 5.14752 5.94542 4494 ft 201 kts 302°
2026-04-25 08:04 5.15265 5.93768 4496 ft 201 kts 302°
2026-04-25 08:04 5.16304 5.92209 4502 ft 201 kts 303°
2026-04-25 08:05 5.16819 5.91437 4504 ft 201 kts 302°
2026-04-25 08:05 5.17598 5.90267 4505 ft 202 kts 302°
2026-04-25 08:05 5.18381 5.89095 4493 ft 202 kts 302°
2026-04-25 08:05 5.19150 5.87917 4496 ft 201 kts 298°
2026-04-25 08:06 5.19634 5.86608 4488 ft 200 kts 283°
2026-04-25 08:06 5.19913 5.85247 4498 ft 199 kts 278°
2026-04-25 08:06 5.20017 5.83864 4500 ft 199 kts 268°
2026-04-25 08:06 5.19995 5.82479 4497 ft 199 kts 268°
2026-04-25 08:07 5.19978 5.81093 4505 ft 199 kts 266°
2026-04-25 08:07 5.19897 5.79704 4498 ft 199 kts 264°
2026-04-25 08:07 5.19678 5.78336 4496 ft 199 kts 257°
2026-04-25 08:07 5.19393 5.76982 4489 ft 198 kts 257°
2026-04-25 08:08 5.19124 5.75626 4496 ft 198 kts 257°
2026-04-25 08:08 5.18855 5.74272 4501 ft 198 kts 257°
2026-04-25 08:08 5.18583 5.72917 4500 ft 198 kts 257°
2026-04-25 08:08 5.18320 5.71559 4502 ft 199 kts 259°
2026-04-25 08:09 5.18170 5.70181 4498 ft 199 kts 263°
2026-04-25 08:09 5.18035 5.68801 4499 ft 198 kts 263°
2026-04-25 08:09 5.17887 5.67427 4498 ft 198 kts 263°
2026-04-25 08:09 5.17741 5.66049 4501 ft 199 kts 263°
2026-04-25 08:10 5.17598 5.64669 4507 ft 199 kts 263°
2026-04-25 08:10 5.17453 5.63288 4499 ft 199 kts 263°
2026-04-25 08:10 5.17307 5.61905 4491 ft 199 kts 263°
2026-04-25 08:10 5.17162 5.60526 4494 ft 199 kts 263°
2026-04-25 08:11 5.17017 5.59148 4494 ft 199 kts 263°
2026-04-25 08:11 5.16873 5.57770 4498 ft 199 kts 263°
2026-04-25 08:11 5.16728 5.56396 4499 ft 199 kts 263°
2026-04-25 08:11 5.16583 5.55015 4499 ft 199 kts 262°
2026-04-25 08:12 5.16437 5.53634 4497 ft 199 kts 263°
2026-04-25 08:12 5.16291 5.52251 4498 ft 199 kts 262°
2026-04-25 08:12 5.16144 5.50870 4499 ft 199 kts 263°
2026-04-25 08:12 5.16003 5.49507 4493 ft 199 kts 263°
2026-04-25 08:13 5.15857 5.48127 4496 ft 199 kts 263°
2026-04-25 08:13 5.15714 5.46748 4498 ft 199 kts 263°
2026-04-25 08:13 5.15567 5.45369 4495 ft 199 kts 263°
2026-04-25 08:14 5.15275 5.42609 4495 ft 199 kts 263°
2026-04-25 08:14 5.15172 5.41230 4489 ft 199 kts 273°
2026-04-25 08:14 5.15738 5.39982 4484 ft 201 kts 313°
2026-04-25 08:14 5.16926 5.39250 4494 ft 202 kts 337°
2026-04-25 08:15 5.18242 5.38750 4494 ft 202 kts 339°
2026-04-25 08:15 5.19555 5.38252 4497 ft 202 kts 338°
2026-04-25 08:15 5.20867 5.37744 4495 ft 202 kts 339°
2026-04-25 08:15 5.22178 5.37239 4500 ft 202 kts 339°
2026-04-25 08:16 5.23491 5.36735 4494 ft 202 kts 338°
2026-04-25 08:16 5.24806 5.36230 4499 ft 203 kts 339°
2026-04-25 08:16 5.26127 5.35721 4499 ft 204 kts 338°
2026-04-25 08:16 5.27453 5.35211 4502 ft 204 kts 339°
2026-04-25 08:17 5.28781 5.34700 4485 ft 204 kts 338°
2026-04-25 08:17 5.30104 5.34191 4491 ft 203 kts 338°
2026-04-25 08:17 5.31423 5.33684 4485 ft 203 kts 339°
2026-04-25 08:17 5.32738 5.33178 4485 ft 202 kts 338°
2026-04-25 08:18 5.34033 5.32680 4490 ft 202 kts 339°
2026-04-25 08:18 5.35340 5.32161 4502 ft 202 kts 335°
2026-04-25 08:18 5.36607 5.31542 4492 ft 202 kts 332°
2026-04-25 08:18 5.37842 5.30868 4495 ft 202 kts 327°
2026-04-25 08:19 5.38998 5.30069 4496 ft 202 kts 324°
2026-04-25 08:19 5.40154 5.29266 4491 ft 202 kts 324°
2026-04-25 08:19 5.41311 5.28475 4495 ft 201 kts 325°
2026-04-25 08:19 5.42467 5.27682 4494 ft 201 kts 324°
2026-04-25 08:20 5.43622 5.26887 4497 ft 201 kts 324°
2026-04-25 08:20 5.44780 5.26092 4500 ft 201 kts 324°
2026-04-25 08:20 5.45934 5.25298 4489 ft 202 kts 324°
2026-04-25 08:20 5.47092 5.24501 4501 ft 202 kts 324°
2026-04-25 08:21 5.48255 5.23703 4494 ft 202 kts 324°
2026-04-25 08:21 5.49416 5.22904 4482 ft 202 kts 324°
2026-04-25 08:21 5.50577 5.22106 4494 ft 202 kts 324°
2026-04-25 08:21 5.51737 5.21308 4486 ft 202 kts 324°
2026-04-25 08:22 5.52896 5.20512 4496 ft 202 kts 324°
2026-04-25 08:22 5.54052 5.19717 4555 ft 199 kts 324°
2026-04-25 08:22 5.55171 5.18946 4702 ft 192 kts 324°
2026-04-25 08:22 5.56261 5.18197 4844 ft 188 kts 325°
2026-04-25 08:23 5.57330 5.17463 4987 ft 185 kts 325°
2026-04-25 08:23 5.58383 5.16738 5130 ft 182 kts 325°
2026-04-25 08:23 5.59424 5.16022 5276 ft 181 kts 325°
2026-04-25 08:23 5.60456 5.15312 5419 ft 179 kts 325°
2026-04-25 08:24 5.61471 5.14614 5563 ft 178 kts 325°
2026-04-25 08:24 5.62488 5.13907 5712 ft 177 kts 324°
2026-04-25 08:24 5.63505 5.13208 5857 ft 177 kts 327°
2026-04-25 08:24 5.64542 5.12547 6007 ft 176 kts 328°
2026-04-25 08:25 5.65573 5.11885 6155 ft 176 kts 328°
2026-04-25 08:25 5.66563 5.11243 6309 ft 176 kts 328°
2026-04-25 08:25 5.67598 5.10573 6407 ft 179 kts 328°
2026-04-25 08:25 5.68655 5.09890 6451 ft 183 kts 328°
2026-04-25 08:26 5.69733 5.09194 6469 ft 186 kts 328°
2026-04-25 08:26 5.70831 5.08483 6478 ft 189 kts 328°
2026-04-25 08:26 5.71946 5.07763 6486 ft 191 kts 328°
2026-04-25 08:26 5.73073 5.07034 6491 ft 193 kts 328°
2026-04-25 08:27 5.74203 5.06302 6495 ft 195 kts 328°
2026-04-25 08:27 5.75349 5.05561 6500 ft 197 kts 328°
2026-04-25 08:27 5.76502 5.04816 6497 ft 198 kts 328°
2026-04-25 08:27 5.77662 5.04064 6499 ft 199 kts 328°
2026-04-25 08:28 5.78823 5.03313 6494 ft 199 kts 328°
2026-04-25 08:28 5.79985 5.02561 6486 ft 198 kts 328°
2026-04-25 08:28 5.81141 5.01813 6489 ft 197 kts 328°
2026-04-25 08:28 5.82292 5.01068 6491 ft 197 kts 328°
2026-04-25 08:29 5.83446 5.00322 6495 ft 197 kts 328°
2026-04-25 08:29 5.84596 4.99577 6497 ft 197 kts 328°
2026-04-25 08:29 5.85746 4.98833 6496 ft 197 kts 328°
2026-04-25 08:29 5.86896 4.98089 6497 ft 197 kts 328°
2026-04-25 08:30 5.88047 4.97344 6499 ft 197 kts 328°
2026-04-25 08:30 5.89200 4.96597 6503 ft 197 kts 328°
2026-04-25 08:30 5.90349 4.95848 6500 ft 197 kts 326°
2026-04-25 08:30 5.91399 4.94962 6488 ft 197 kts 318°
2026-04-25 08:31 5.92386 4.94004 6497 ft 197 kts 316°
2026-04-25 08:31 5.93304 4.92979 6501 ft 197 kts 309°
2026-04-25 08:31 5.94142 4.91909 6501 ft 197 kts 309°
2026-04-25 08:31 5.95012 4.90821 6501 ft 197 kts 309°
2026-04-25 08:32 5.95863 4.89763 6500 ft 197 kts 309°
2026-04-25 08:32 5.96724 4.88687 6497 ft 198 kts 309°
2026-04-25 08:32 5.97585 4.87612 6497 ft 198 kts 309°
2026-04-25 08:32 5.98446 4.86537 6497 ft 197 kts 309°
2026-04-25 08:33 5.99307 4.85463 6498 ft 198 kts 309°
2026-04-25 08:33 6.00169 4.84386 6501 ft 198 kts 309°
2026-04-25 08:33 6.01031 4.83310 6496 ft 198 kts 309°
2026-04-25 08:33 6.01892 4.82234 6499 ft 197 kts 309°
2026-04-25 08:34 6.02752 4.81160 6496 ft 197 kts 309°
2026-04-25 08:34 6.03611 4.80087 6497 ft 197 kts 309°
2026-04-25 08:34 6.04470 4.79014 6498 ft 197 kts 309°
2026-04-25 08:34 6.05329 4.77940 6497 ft 197 kts 309°
2026-04-25 08:35 6.06188 4.76868 6498 ft 197 kts 309°
2026-04-25 08:35 6.07047 4.75796 6493 ft 197 kts 309°
2026-04-25 08:35 6.07904 4.74723 6499 ft 197 kts 309°
2026-04-25 08:35 6.08761 4.73654 6496 ft 196 kts 309°
2026-04-25 08:36 6.09617 4.72583 6499 ft 197 kts 309°
2026-04-25 08:36 6.10475 4.71512 6497 ft 197 kts 309°
2026-04-25 08:36 6.11332 4.70440 6499 ft 197 kts 309°
2026-04-25 08:36 6.12190 4.69368 6500 ft 197 kts 309°
2026-04-25 08:37 6.13037 4.68310 6496 ft 197 kts 309°
2026-04-25 08:37 6.13905 4.67225 6499 ft 197 kts 309°
2026-04-25 08:37 6.14726 4.66199 6502 ft 198 kts 309°
2026-04-25 08:37 6.15600 4.65106 6497 ft 198 kts 309°
2026-04-25 08:38 6.16451 4.64043 6497 ft 198 kts 309°
2026-04-25 08:38 6.17311 4.62967 6496 ft 197 kts 309°
2026-04-25 08:38 6.18170 4.61893 6503 ft 197 kts 309°
2026-04-25 08:38 6.19030 4.60818 6504 ft 198 kts 309°
2026-04-25 08:39 6.19892 4.59740 6506 ft 198 kts 309°
2026-04-25 08:39 6.20755 4.58661 6497 ft 198 kts 309°
2026-04-25 08:39 6.21616 4.57585 6494 ft 198 kts 309°
2026-04-25 08:39 6.22476 4.56509 6494 ft 197 kts 309°
2026-04-25 08:40 6.23333 4.55437 6492 ft 197 kts 309°
2026-04-25 08:40 6.24190 4.54365 6502 ft 197 kts 309°
2026-04-25 08:40 6.25043 4.53298 6502 ft 197 kts 309°
2026-04-25 08:40 6.25900 4.52227 6500 ft 197 kts 309°
2026-04-25 08:41 6.26757 4.51154 6495 ft 197 kts 309°
2026-04-25 08:41 6.27613 4.50084 6493 ft 197 kts 309°
2026-04-25 08:41 6.28469 4.49012 6494 ft 197 kts 309°
2026-04-25 08:41 6.29326 4.47941 6498 ft 197 kts 309°
2026-04-25 08:42 6.30175 4.46878 6496 ft 197 kts 309°
2026-04-25 08:42 6.31036 4.45801 6494 ft 197 kts 309°
2026-04-25 08:42 6.31856 4.44769 6494 ft 196 kts 307°
2026-04-25 08:42 6.32706 4.43695 6496 ft 196 kts 308°
2026-04-25 08:43 6.33559 4.42627 6502 ft 195 kts 308°
2026-04-25 08:43 6.34429 4.41579 6504 ft 196 kts 310°
2026-04-25 08:43 6.35276 4.40507 6505 ft 196 kts 308°
2026-04-25 08:43 6.36123 4.39432 6501 ft 196 kts 309°
2026-04-25 08:44 6.36978 4.38364 6501 ft 196 kts 309°
2026-04-25 08:44 6.37825 4.37287 6502 ft 196 kts 308°
2026-04-25 08:44 6.38633 4.36179 6501 ft 197 kts 303°
2026-04-25 08:44 6.39329 4.34994 6502 ft 197 kts 300°
2026-04-25 08:45 6.40005 4.33835 6398 ft 202 kts 301°
2026-04-25 08:45 6.40734 4.32611 6273 ft 206 kts 301°
2026-04-25 08:45 6.41470 4.31366 6148 ft 208 kts 300°
2026-04-25 08:45 6.42211 4.30110 6008 ft 210 kts 300°
2026-04-25 08:46 6.42963 4.28839 5857 ft 212 kts 300°
2026-04-25 08:46 6.43717 4.27562 5712 ft 213 kts 300°
2026-04-25 08:46 6.44476 4.26280 5566 ft 214 kts 300°
2026-04-25 08:46 6.45235 4.24995 5424 ft 214 kts 300°
2026-04-25 08:47 6.45995 4.23709 5277 ft 214 kts 300°
2026-04-25 08:47 6.46746 4.22439 5132 ft 214 kts 300°
2026-04-25 08:47 6.47507 4.21151 4986 ft 214 kts 299°
2026-04-25 08:47 6.48267 4.19866 4841 ft 214 kts 299°
2026-04-25 08:48 6.49028 4.18578 4702 ft 214 kts 300°
2026-04-25 08:48 6.49785 4.17296 4595 ft 212 kts 299°
2026-04-25 08:48 6.50533 4.16030 4548 ft 209 kts 299°
2026-04-25 08:48 6.51272 4.14780 4535 ft 207 kts 299°
2026-04-25 08:49 6.52004 4.13540 4525 ft 206 kts 299°
2026-04-25 08:49 6.52734 4.12305 4515 ft 204 kts 299°
2026-04-25 08:49 6.53457 4.11080 4504 ft 203 kts 299°
2026-04-25 08:49 6.54174 4.09868 4505 ft 201 kts 299°
2026-04-25 08:50 6.54885 4.08662 4497 ft 200 kts 299°
2026-04-25 08:50 6.55591 4.07466 4499 ft 198 kts 299°
2026-04-25 08:50 6.56294 4.06279 4506 ft 197 kts 299°
2026-04-25 08:50 6.56989 4.05100 4508 ft 197 kts 299°
2026-04-25 08:51 6.57684 4.03922 4509 ft 196 kts 299°
2026-04-25 08:51 6.58380 4.02746 4506 ft 195 kts 299°
2026-04-25 08:51 6.58838 4.01968 4500 ft 195 kts 299°
2026-04-25 08:51 6.59464 4.00844 4508 ft 195 kts 295°
2026-04-25 08:52 6.60057 3.99593 4499 ft 195 kts 293°
2026-04-25 08:52 6.60559 3.98324 4493 ft 196 kts 286°
2026-04-25 08:52 6.60967 3.97016 4479 ft 196 kts 286°
2026-04-25 08:52 6.61389 3.95710 4483 ft 197 kts 287°
2026-04-25 08:53 6.61816 3.94402 4476 ft 197 kts 287°
2026-04-25 08:53 6.62240 3.93090 4484 ft 198 kts 287°
2026-04-25 08:53 6.62666 3.91776 4475 ft 198 kts 287°
2026-04-25 08:53 6.63092 3.90463 4479 ft 197 kts 285°
2026-04-25 08:54 6.63508 3.89149 4435 ft 198 kts 284°
2026-04-25 08:54 6.63927 3.87821 4299 ft 202 kts 285°
2026-04-25 08:54 6.64374 3.86474 4181 ft 204 kts 284°
2026-04-25 08:54 6.64812 3.85109 4054 ft 205 kts 285°
2026-04-25 08:55 6.65279 3.83745 3939 ft 207 kts 288°
2026-04-25 08:55 6.65730 3.82363 3822 ft 208 kts 288°
2026-04-25 08:55 6.66177 3.80973 3707 ft 209 kts 287°
2026-04-25 08:55 6.66618 3.79595 3595 ft 210 kts 287°
2026-04-25 08:56 6.67071 3.78190 3486 ft 211 kts 287°
2026-04-25 08:56 6.67524 3.76782 3356 ft 212 kts 287°
2026-04-25 08:56 6.67979 3.75375 3237 ft 211 kts 286°
2026-04-25 08:56 6.68433 3.73967 3119 ft 212 kts 286°
2026-04-25 08:57 6.68888 3.72558 2995 ft 212 kts 286°
2026-04-25 08:57 6.69345 3.71149 2876 ft 212 kts 286°
2026-04-25 08:57 6.69799 3.69742 2749 ft 212 kts 286°
2026-04-25 08:57 6.70254 3.68335 2633 ft 211 kts 286°
2026-04-25 08:58 6.70706 3.66936 2552 ft 209 kts 286°
2026-04-25 08:58 6.71151 3.65560 2512 ft 205 kts 286°
2026-04-25 08:58 6.71593 3.64202 2497 ft 203 kts 287°
2026-04-25 08:58 6.72030 3.62860 2477 ft 200 kts 286°
2026-04-25 08:59 6.72454 3.61534 2491 ft 198 kts 284°
2026-04-25 08:59 6.72887 3.60225 2477 ft 197 kts 287°
2026-04-25 08:59 6.73286 3.58916 2477 ft 194 kts 282°
2026-04-25 08:59 6.73697 3.57621 2496 ft 195 kts 285°
2026-04-25 09:00 6.74107 3.56334 2486 ft 193 kts 284°
2026-04-25 09:00 6.74541 3.55049 2493 ft 194 kts 288°
2026-04-25 09:00 6.74979 3.53758 2499 ft 196 kts 285°
2026-04-25 09:00 6.75396 3.52449 2498 ft 197 kts 286°
2026-04-25 09:01 6.75819 3.51135 2488 ft 198 kts 286°
2026-04-25 09:01 6.76241 3.49820 2486 ft 197 kts 286°
2026-04-25 09:01 6.76666 3.48506 2496 ft 198 kts 286°
2026-04-25 09:01 6.77094 3.47189 2496 ft 198 kts 286°
2026-04-25 09:02 6.77511 3.45888 2497 ft 198 kts 283°
2026-04-25 09:02 6.77939 3.44574 2497 ft 198 kts 287°
2026-04-25 09:02 6.78401 3.43267 2494 ft 199 kts 289°
2026-04-25 09:02 6.78990 3.41998 2495 ft 200 kts 295°
2026-04-25 09:03 6.79609 3.40799 2498 ft 184 kts 294°
2026-04-25 09:03 6.80141 3.39731 2465 ft 157 kts 293°
2026-04-25 09:03 6.80588 3.38826 2461 ft 133 kts 293°
2026-04-25 09:03 6.80998 3.38065 2467 ft 119 kts 299°
2026-04-25 09:04 6.81545 3.37374 2494 ft 139 kts 310°
2026-04-25 09:04 6.82309 3.36630 2524 ft 165 kts 314°
2026-04-25 09:04 6.83199 3.35815 2520 ft 182 kts 315°
2026-04-25 09:04 6.84164 3.34927 2349 ft 191 kts 314°
2026-04-25 09:05 6.84823 3.33820 2139 ft 184 kts 281°
2026-04-25 09:05 6.84669 3.32591 1924 ft 177 kts 241°
2026-04-25 09:05 6.83748 3.31847 1735 ft 174 kts 199°
2026-04-25 09:05 6.82545 3.31838 1534 ft 173 kts 176°
2026-04-25 09:06 6.81369 3.32063 1342 ft 171 kts 171°
2026-04-25 09:06 6.80198 3.32274 1172 ft 170 kts 176°
2026-04-25 09:06 6.79040 3.32456 1083 ft 166 kts 174°
2026-04-25 09:06 6.77916 3.32593 1034 ft 160 kts 176°
2026-04-25 09:07 6.76837 3.32712 998 ft 151 kts 178°
2026-04-25 09:07 6.75829 3.32814 957 ft 141 kts 176°
2026-04-25 09:07 6.74848 3.32863 990 ft 146 kts 180°
2026-04-25 09:07 6.73776 3.32896 988 ft 161 kts 179°
2026-04-25 09:08 6.72623 3.32856 1025 ft 171 kts 186°
2026-04-25 09:08 6.71477 3.32776 1012 ft 159 kts 185°
2026-04-25 09:08 6.70382 3.32751 1020 ft 156 kts 181°
2026-04-25 09:08 6.69319 3.32822 1003 ft 151 kts 176°
2026-04-25 09:09 6.68292 3.32901 1013 ft 150 kts 178°
2026-04-25 09:09 6.67261 3.32985 1006 ft 148 kts 178°
2026-04-25 09:09 6.66243 3.33041 1002 ft 140 kts 181°
2026-04-25 09:09 6.65348 3.32939 919 ft 129 kts 187°
2026-04-25 09:10 6.64474 3.32903 1013 ft 123 kts 179°
2026-04-25 09:10 6.63621 3.32904 963 ft 125 kts 181°
2026-04-25 09:10 6.62720 3.32951 971 ft 133 kts 176°
2026-04-25 09:10 6.61801 3.32939 842 ft 131 kts 188°
2026-04-25 09:11 6.60006 3.32897 289 ft 120 kts 182°
2026-04-25 09:11 6.59242 3.32898 142 ft 99 kts 177°
2026-04-25 09:11 6.58664 3.32895 122 ft 61 kts 183°
2026-04-25 09:12 6.58290 3.32902 114 ft 47 kts 176°
2026-04-25 09:12 6.58056 3.32929 109 ft 14 kts 118°
2026-04-25 09:12 6.58053 3.32992 109 ft 0 kts 89°
2026-04-25 09:13 6.58060 3.33037 109 ft 11 kts 62°
2026-04-25 09:13 6.58150 3.33052 110 ft 17 kts 359°
2026-04-25 09:13 6.58285 3.33050 113 ft 22 kts 359°
2026-04-25 09:13 6.58434 3.33049 116 ft 19 kts 356°
2026-04-25 09:14 6.58555 3.33047 118 ft 15 kts 359°
2026-04-25 09:14 6.58663 3.33045 120 ft 16 kts 359°
2026-04-25 09:14 6.58778 3.33044 122 ft 17 kts 359°
2026-04-25 09:14 6.58901 3.33044 125 ft 18 kts
2026-04-25 09:15 6.59015 3.33045 127 ft 15 kts 359°
2026-04-25 09:15 6.59125 3.33042 129 ft 16 kts 359°
2026-04-25 09:15 6.59228 3.33039 130 ft 14 kts
2026-04-25 09:15 6.59316 3.33039 132 ft 11 kts
2026-04-25 09:16 6.59337 3.33073 133 ft 0 kts 93°
2026-04-25 09:16 6.59336 3.33074 133 ft 0 kts 93°